Location: Most
(50.5133°N, 13.6207°E)
Time: 11:25:41
(UTC+01:00)

Oscar 11 - Pass Details

Date: 30 November 2021
Orbit: 611 x 625 km, 97.6° (Epoch: 23 January)

Event Time Altitude Azimuth Distance (km) Brightness Sun altitude
Rises 17:22:20 0° 194° (SSW) 2,892 11.0 -11.8°
Reaches altitude 10° 17:24:45 10° 206° (SSW) 1,993 10.3 -12.1°
Maximum altitude 17:28:31 28° 266° (W) 1,172 9.3 -12.7°
Drops below altitude 10° 17:32:19 10° 326° (NW) 2,011 9.9 -13.3°
Sets 17:34:47 0° 338° (NNW) 2,924 10.6 -13.6°
